Tracking 19245 objects as of 18-Aug-2018
HD Live streaming from Space Station
objects crossing your sky now

NOAA 16 DEB

Track NOAA 16 DEB now!
10-day predictions


NORAD ID: 41292
Int'l Code: 2000-055GU
Perigee: 781.2 km
Apogee: 857.4 km
Inclination: 98.9 °
Period: 101.1 minutes
Semi major axis: 7190 km
RCS: Unknown
Launch date: September 21, 2000
Source: United States (US)
Launch site: AIR FORCE WESTERN TEST RANGE (AFWTR)

Note: This is SATELLITE DEBRIS
aabbcc
Your satellite tracking list
Your tracking list is empty




NASA's NSSDC Master Catalog

Two Line Element Set (TLE):
1 41292U 00055GU  18229.21134362  .00000726  00000-0  33168-3 0  9991
2 41292  98.9108 324.0847 0052982 110.9902 249.6956 14.23923148137921
Source of the keplerian elements: AFSPC